Weather in Durmin

Russia / Khabarovsk Krai     48°05′16″N   135°50′52″E
temp.,
°C
wind,
m/s
gust,
m/s
humid.,
%
clouds,
%
prec.,
mm/h
press.,
hPa
HPBL,
m
29 june, wed
wed2901:00+16ssw228184 0.0 100018
04:00+15ssw22905 0.0 100126
07:00+17ssw12850 0.0 1002133
10:00+24n12630 0.0 1003640
13:00+27n33520 0.0 10031418
16:00+27n32510 0.0 10031813
19:00+25nnw24705 0.0 1003330
22:00+19nne11934 0.0 100511
30 june, thu
thu3001:00+18nne009631 0.0 100711
04:00+17sse009699 0.0 100811
07:00+19sw019298 0.0 101085
10:00+25n1164100 0.0 1010656
13:00+28n2250100 0.0 10091403
16:00+29n2346100 0.0 10091906
19:00+26n257299 0.0 1009219
22:00+20ese11909 0.0 101011
1 july, fri
fri101:00+18sw26987 0.1 1012139
04:00+17ssw379711 0.1 1013193
07:00+19sw24875 0.0 1014210
10:00+24wsw22620 0.0 1013764
13:00+28w22539 0.0 10121335
16:00+28wnw335485 0.0 10111575
19:00+26nw2375100 0.1 1010132
22:00+21ssw119495 0.3 101111
2 july, sat
sat201:00+19ssw119719 0.0 101118
04:00+18ssw229889 0.0 101129
07:00+20s1395100 0.0 101098
10:00+25ssw2469100 0.0 1010839
13:00+27ssw346465 0.2 10091197
16:00+26wsw247841 1.9 1007969
19:00+25wsw2487100 1.4 1007240
22:00+21s2295100 1.4 100726
3 july, sun
sun301:00+20s2397100 0.0 100756
04:00+20ssw2497100 0.0 100796
07:00+20s2499100 1.2 1007127
10:00+21ssw1498100 2.4 1007192
13:00+25ssw128044 0.5 1007559
16:00+26e0182100 3.8 1005391
19:00+25s1288100 1.8 100575
22:00+21sse229596 2.1 100526